When you browse on this site, cookies collect data to enhance your experience and personalize the content and advertising you see.
Visit our Privacy Policy to learn more. By continuing to use the site, you agree to this use of cookies and data.
  • In Lithuania
  • List of Countries
  • For 7 days
  • Water Temperature
  • Weather Map
  • Weather Widgets
  • user-avatar
    Login

    Hourly Weather Bamenda

    Today, 17 February, Monday

    Time Temperature Precipitation Wind Pressure Humidity
    00:00 +19°C° 0 mm 1 mps 640 mmHg 42%
    01:00 +19°C° 0 mm 1 mps 640 mmHg 41%
    02:00 +19°C° 0 mm 1 mps 640 mmHg 38%
    03:00 +18°C° 0 mm 1 mps 640 mmHg 34%
    04:00 +18°C° 0 mm 1 mps 640 mmHg 31%
    05:00 +18°C° 0 mm 1 mps 640 mmHg 29%
    06:00 +18°C° 0 mm 1 mps 641 mmHg 28%
    07:00 +19°C° 0 mm 1 mps 641 mmHg 26%
    08:00 +22°C° 0 mm 1 mps 642 mmHg 22%
    09:00 +26°C° 0 mm 1 mps 644 mmHg 18%
    10:00 +30°C° 0 mm 1 mps 645 mmHg 15%
    11:00 +32°C° 0 mm 1 mps 645 mmHg 14%
    12:00 +33°C° 0 mm 1 mps 644 mmHg 13%
    13:00 +35°C° 0 mm 1 mps 644 mmHg 13%
    14:00 +35°C° 0 mm 2 mps 643 mmHg 13%
    15:00 +35°C° 0 mm 2 mps 642 mmHg 14%
    16:00 +34°C° 0 mm 2 mps 641 mmHg 14%
    17:00 +30°C° 0 mm 2 mps 641 mmHg 20%
    18:00 +26°C° 0 mm 1 mps 640 mmHg 25%
    19:00 +23°C° 0 mm 1 mps 639 mmHg 31%
    20:00 +22°C° 0 mm 1 mps 640 mmHg 33%
    21:00 +22°C° 0 mm 1 mps 640 mmHg 35%
    22:00 +21°C° 0 mm 1 mps 640 mmHg 38%
    23:00 +20°C° 0 mm 1 mps 640 mmHg 41%

    Tomorrow, 18 February, Tuesday

    Time Temperature Precipitation Wind Pressure Humidity
    00:00 +20°C° 0 mm 1 mps 640 mmHg 44%
    01:00 +19°C° 0 mm 1 mps 640 mmHg 47%
    02:00 +19°C° 0 mm 1 mps 640 mmHg 49%
    03:00 +18°C° 0 mm 1 mps 640 mmHg 50%
    04:00 +18°C° 0 mm 1 mps 640 mmHg 52%
    05:00 +18°C° 0 mm 1 mps 640 mmHg 50%
    06:00 +18°C° 0 mm 1 mps 640 mmHg 48%
    07:00 +16°C° 0 mm 1 mps 641 mmHg 46%
    08:00 +21°C° 0 mm 1 mps 642 mmHg 37%
    09:00 +24°C° 0 mm 2 mps 643 mmHg 28%
    10:00 +28°C° 0 mm 2 mps 645 mmHg 19%
    11:00 +30°C° 0 mm 2 mps 645 mmHg 17%
    12:00 +31°C° 0 mm 2 mps 644 mmHg 16%
    13:00 +34°C° 0 mm 2 mps 644 mmHg 14%
    14:00 +34°C° 0 mm 2 mps 643 mmHg 15%
    15:00 +34°C° 0 mm 2 mps 643 mmHg 16%
    16:00 +34°C° 0 mm 2 mps 642 mmHg 16%
    17:00 +29°C° 0 mm 2 mps 641 mmHg 23%
    18:00 +26°C° 0 mm 1 mps 640 mmHg 30%
    19:00 +23°C° 0 mm 1 mps 639 mmHg 37%
    20:00 +22°C° 0 mm 1 mps 640 mmHg 40%
    21:00 +21°C° 0 mm 1 mps 640 mmHg 43%
    22:00 +20°C° 0 mm 1 mps 641 mmHg 45%
    23:00 +20°C° 0 mm 1 mps 640 mmHg 50%

    Day after tomorrow, 19 February, Wednesday

    Time Temperature Precipitation Wind Pressure Humidity
    00:00 +19°C° 0 mm 1 mps 640 mmHg 54%
    01:00 +19°C° 0 mm 1 mps 640 mmHg 58%
    02:00 +18°C° 0 mm 1 mps 640 mmHg 62%
    03:00 +18°C° 0 mm 1 mps 639 mmHg 66%
    04:00 +18°C° 0 mm 1 mps 639 mmHg 70%
    05:00 +18°C° 0 mm 1 mps 640 mmHg 66%
    06:00 +18°C° 0 mm 1 mps 640 mmHg 62%
    07:00 +18°C° 0 mm 1 mps 640 mmHg 57%
    08:00 +21°C° 0 mm 1 mps 642 mmHg 47%
    09:00 +25°C° 0 mm 2 mps 643 mmHg 37%
    10:00 +28°C° 0 mm 2 mps 644 mmHg 27%
    11:00 +30°C° 0 mm 2 mps 644 mmHg 24%
    12:00 +32°C° 0 mm 2 mps 644 mmHg 20%
    13:00 +34°C° 0 mm 2 mps 643 mmHg 17%
    14:00 +34°C° 0 mm 2 mps 643 mmHg 17%
    15:00 +34°C° 0 mm 2 mps 642 mmHg 16%
    16:00 +34°C° 0 mm 2 mps 641 mmHg 16%
    17:00 +30°C° 0 mm 2 mps 640 mmHg 20%
    18:00 +27°C° 0 mm 1 mps 639 mmHg 25%
    19:00 +24°C° 0 mm 1 mps 639 mmHg 29%
    20:00 +23°C° 0 mm 1 mps 639 mmHg 32%
    21:00 +22°C° 0 mm 1 mps 639 mmHg 36%
    22:00 +21°C° 0 mm 1 mps 640 mmHg 39%
    23:00 +20°C° 0 mm 1 mps 640 mmHg 40%

    20 February, Thursday

    Time Temperature Precipitation Wind Pressure Humidity
    00:00 +20°C° 0 mm 1 mps 639 mmHg 41%
    01:00 +19°C° 0 mm 1 mps 639 mmHg 41%
    02:00 +19°C° 0 mm 1 mps 639 mmHg 38%
    03:00 +19°C° 0 mm 1 mps 639 mmHg 34%
    04:00 +19°C° 0 mm 1 mps 639 mmHg 31%
    05:00 +19°C° 0 mm 1 mps 639 mmHg 30%
    06:00 +19°C° 0 mm 1 mps 640 mmHg 30%
    07:00 +19°C° 0 mm 1 mps 640 mmHg 30%
    08:00 +23°C° 0 mm 1 mps 641 mmHg 25%
    09:00 +27°C° 0 mm 1 mps 643 mmHg 21%
    10:00 +31°C° 0 mm 1 mps 644 mmHg 16%
    11:00 +32°C° 0 mm 1 mps 644 mmHg 15%
    12:00 +34°C° 0 mm 2 mps 643 mmHg 14%
    13:00 +35°C° 0 mm 3 mps 643 mmHg 13%
    14:00 +35°C° 0 mm 2 mps 642 mmHg 14%
    15:00 +35°C° 0 mm 2 mps 641 mmHg 14%
    16:00 +35°C° 0 mm 2 mps 641 mmHg 14%
    17:00 +31°C° 0 mm 2 mps 640 mmHg 19%
    18:00 +27°C° 0 mm 1 mps 639 mmHg 24%
    19:00 +24°C° 0 mm 1 mps 638 mmHg 29%
    20:00 +23°C° 0 mm 1 mps 639 mmHg 32%
    21:00 +22°C° 0 mm 1 mps 639 mmHg 34%
    22:00 +21°C° 0 mm 1 mps 640 mmHg 36%
    23:00 +21°C° 0 mm 1 mps 639 mmHg 40%

    21 February, Friday

    Time Temperature Precipitation Wind Pressure Humidity
    00:00 +20°C° 0 mm 1 mps 639 mmHg 44%
    01:00 +20°C° 0 mm 1 mps 639 mmHg 49%
    02:00 +19°C° 0 mm 1 mps 639 mmHg 45%
    03:00 +19°C° 0 mm 1 mps 639 mmHg 41%
    04:00 +19°C° 0 mm 1 mps 639 mmHg 37%
    05:00 +19°C° 0 mm 1 mps 639 mmHg 35%
    06:00 +19°C° 0 mm 1 mps 639 mmHg 33%
    07:00 +19°C° 0 mm 1 mps 640 mmHg 32%
    14:00 +35°C° 0 mm 2 mps 642 mmHg 16%
    15:00 +34°C° 0 mm 2 mps 641 mmHg 17%
    16:00 +34°C° 0 mm 2 mps 640 mmHg 17%
    17:00 +31°C° 0 mm 2 mps 640 mmHg 22%
    18:00 +28°C° 0 mm 1 mps 639 mmHg 26%
    19:00 +26°C° 0 mm 1 mps 639 mmHg 30%
    20:00 +25°C° 0 mm 1 mps 639 mmHg 33%
    21:00 +23°C° 0 mm 1 mps 639 mmHg 35%
    22:00 +22°C° 0 mm 1 mps 640 mmHg 37%
    23:00 +21°C° 0 mm 1 mps 639 mmHg 35%

    22 February, Saturday

    Time Temperature Precipitation Wind Pressure Humidity
    00:00 +21°C° 0 mm 1 mps 639 mmHg 33%
    01:00 +20°C° 0 mm 1 mps 639 mmHg 31%
    02:00 +20°C° 0 mm 1 mps 639 mmHg 30%
    03:00 +20°C° 0 mm 1 mps 639 mmHg 30%
    04:00 +20°C° 0 mm 1 mps 638 mmHg 30%
    05:00 +20°C° 0 mm 1 mps 639 mmHg 30%
    06:00 +18°C° 0 mm 0 mps 640 mmHg 29%
    07:00 +18°C° 0 mm 0 mps 640 mmHg 29%
    08:00 +24°C° 0 mm 1 mps 642 mmHg 25%
    09:00 +27°C° 0 mm 1 mps 643 mmHg 21%
    10:00 +31°C° 0 mm 2 mps 645 mmHg 17%
    11:00 +32°C° 0 mm 2 mps 644 mmHg 16%
    12:00 +34°C° 0 mm 2 mps 644 mmHg 16%
    13:00 +35°C° 0 mm 2 mps 643 mmHg 15%
    14:00 +35°C° 0 mm 2 mps 642 mmHg 16%
    15:00 +35°C° 0 mm 2 mps 641 mmHg 17%
    16:00 +35°C° 0 mm 2 mps 641 mmHg 18%
    17:00 +31°C° 0 mm 2 mps 640 mmHg 24%
    18:00 +29°C° 0 mm 2 mps 640 mmHg 29%
    19:00 +26°C° 0 mm 2 mps 639 mmHg 35%
    20:00 +24°C° 0 mm 2 mps 640 mmHg 45%
    21:00 +23°C° 0 mm 1 mps 640 mmHg 56%
    22:00 +21°C° 0 mm 1 mps 640 mmHg 67%
    23:00 +20°C° 0 mm 1 mps 640 mmHg 69%
    Show more